Pinedale, WY

7:20 PM MDT on March 23, 2017 (GMT -0600)
Wenz

Weather History for KPNA - May, 2013

Change the Weather History Date:

Friday, May 24, 2013

  Actual Average (KBPI) Record (KBPI)
Temperature  
Mean Temperature 47 °F -  
Max Temperature 64 °F 64 °F 80 °F (2001)
Min Temperature 30 °F 31 °F 20 °F (2007)
Degree Days  
Heating Degree Days 18    
Moisture  
Dew Point 17 °F    
Average Humidity 38    
Maximum Humidity 80    
Minimum Humidity 11    
Precipitation  
Precipitation 0.00 in - - ()
Sea Level Pressure  
Sea Level Pressure 30.08 in    
Wind  
Wind Speed 11 mph (West)    
Max Wind Speed 24 mph    
Max Gust Speed 33 mph    
Visibility 10 miles    
Events      
Averages and records for this station are not official NWS values.
T = Trace of Precipitation, MM = Missing Value Source: NWS Daily Summary

Daily Weather History Graph

Daily Weather History Graph

Search for Another Location

Airport or City:

Trip Planner

Search our weather history database for the weather conditions in past years. The results will help you decide how hot, cold, wet, or windy it might be!

Date:

Astronomy

May. 24, 2013 Rise Set
Actual Time 5:48 AM MDT 8:44 PM MDT
Civil Twilight 5:14 AM MDT 9:18 PM MDT
Nautical Twilight 4:32 AM MDT 10:00 PM MDT
Astronomical Twilight 3:42 AM MDT 10:51 PM MDT
Moon 8:29 PM MDT 5:24 AM MDT
Length of Visible Light 16h 03m
Length of Day
14h 56m
Full, 100% of the Moon is Illuminated
May 24
Full
May 24
Full
May 31
Last Quarter
Jun 8
New
Jun 16
First Quarter

Hourly Weather History & Observations

Time (MDT) Temp. Windchill Dew Point Humidity Pressure Visibility Wind Dir Wind Speed Gust Speed Precip Events Conditions
12:15 AM 51.8 °F - 26.6 °F 38% 29.90 in 10.0 mi West 16.1 mph - N/A   Overcast
12:35 AM 48.2 °F - 26.6 °F 43% 29.92 in 10.0 mi West 18.4 mph 25.3 mph N/A   Scattered Clouds
12:55 AM 44.6 °F 37.4 °F 30.2 °F 57% 29.95 in 10.0 mi West 16.1 mph 24.2 mph N/A   Mostly Cloudy
1:15 AM 42.8 °F 34.0 °F 30.2 °F 61% 29.97 in 10.0 mi WNW 20.7 mph - N/A   Mostly Cloudy
1:35 AM 41.0 °F 32.8 °F 28.4 °F 61% 29.98 in 10.0 mi WNW 16.1 mph - N/A   Scattered Clouds
1:55 AM 41.0 °F 30.9 °F 26.6 °F 57% 30.00 in 10.0 mi WNW 24.2 mph 33.4 mph N/A   Clear
2:15 AM 41.0 °F 31.4 °F 26.6 °F 57% 30.01 in 10.0 mi WNW 21.9 mph - N/A   Clear
2:35 AM 37.4 °F 30.3 °F 26.6 °F 65% 30.03 in 10.0 mi WNW 10.4 mph 20.7 mph N/A   Clear
2:55 AM 37.4 °F 28.5 °F 26.6 °F 65% 30.03 in 10.0 mi West 15.0 mph - N/A   Clear
3:15 AM 37.4 °F 27.2 °F 28.4 °F 70% 30.04 in 10.0 mi WNW 19.6 mph 24.2 mph N/A   Clear
3:35 AM 37.4 °F 28.5 °F 28.4 °F 70% 30.05 in 10.0 mi WNW 15.0 mph - N/A   Clear
3:55 AM 35.6 °F 29.9 °F 28.4 °F 75% 30.05 in 10.0 mi WNW 6.9 mph - N/A   Clear
4:15 AM 33.8 °F 27.7 °F 26.6 °F 75% 30.05 in 10.0 mi West 6.9 mph - N/A   Clear
4:35 AM 32.0 °F 24.8 °F 26.6 °F 80% 30.06 in 10.0 mi West 8.1 mph - N/A   Clear
4:55 AM 32.0 °F 24.8 °F 26.6 °F 80% 30.06 in 10.0 mi West 8.1 mph - N/A   Clear
5:15 AM 32.0 °F 26.4 °F 26.6 °F 80% 30.07 in 10.0 mi NW 5.8 mph - N/A   Clear
5:35 AM 30.2 °F - 24.8 °F 80% 30.08 in 10.0 mi Calm Calm - N/A   Clear
5:55 AM 30.2 °F - 24.8 °F 80% 30.09 in 10.0 mi Calm Calm - N/A   Clear
6:15 AM 30.2 °F 24.3 °F 24.8 °F 80% 30.09 in 10.0 mi West 5.8 mph - N/A   Clear
6:35 AM 32.0 °F 25.6 °F 26.6 °F 80% 30.10 in 10.0 mi West 6.9 mph - N/A   Clear
6:55 AM 33.8 °F 30.8 °F 26.6 °F 75% 30.11 in 10.0 mi NW 3.5 mph - N/A   Clear
7:15 AM 35.6 °F 29.9 °F 26.6 °F 70% 30.12 in 10.0 mi WNW 6.9 mph - N/A   Clear
7:35 AM 37.4 °F 31.4 °F 26.6 °F 65% 30.13 in 10.0 mi WNW 8.1 mph - N/A   Clear
7:55 AM 37.4 °F 32.1 °F 26.6 °F 65% 30.13 in 10.0 mi WNW 6.9 mph - N/A   Clear
8:15 AM 41.0 °F 37.1 °F 26.6 °F 57% 30.13 in 10.0 mi WNW 5.8 mph - N/A   Clear
8:35 AM 41.0 °F 39.0 °F 24.8 °F 53% 30.13 in 10.0 mi WNW 3.5 mph - N/A   Clear
8:55 AM 42.8 °F 38.6 °F 17.6 °F 36% 30.14 in 10.0 mi West 6.9 mph - N/A   Clear
9:15 AM 44.6 °F 43.1 °F 17.6 °F 34% 30.14 in 10.0 mi West 3.5 mph - N/A   Clear
9:35 AM 44.6 °F - 15.8 °F 31% 30.14 in 10.0 mi Calm Calm - N/A   Clear
9:55 AM 44.6 °F 43.1 °F 15.8 °F 31% 30.14 in 10.0 mi North 3.5 mph - N/A   Clear
10:15 AM 44.6 °F 43.1 °F 14.0 °F 29% 30.13 in 10.0 mi NW 3.5 mph - N/A   Clear
10:35 AM 46.4 °F - 14.0 °F 27% 30.13 in 10.0 mi Calm Calm - N/A   Clear
10:55 AM 46.4 °F 44.3 °F 14.0 °F 27% 30.13 in 10.0 mi East 4.6 mph - N/A   Clear
11:15 AM 50.0 °F - 17.6 °F 28% 30.13 in 10.0 mi East 4.6 mph - N/A   Clear
11:35 AM 51.8 °F - 12.2 °F 21% 30.13 in 10.0 mi SSE 9.2 mph - N/A   Clear
11:55 AM 51.8 °F - 8.6 °F 18% 30.13 in 10.0 mi SSE 6.9 mph - N/A   Clear
12:15 PM 51.8 °F - 10.4 °F 19% 30.13 in 10.0 mi SSE 6.9 mph - N/A   Clear
12:35 PM 51.8 °F - 8.6 °F 18% 30.13 in 10.0 mi Calm Calm - N/A   Clear
12:55 PM 53.6 °F - 10.4 °F 18% 30.13 in 10.0 mi South 10.4 mph - N/A   Clear
1:15 PM 51.8 °F - 8.6 °F 18% 30.12 in 10.0 mi Calm Calm - N/A   Clear
1:35 PM 55.4 °F - 10.4 °F 17% 30.11 in 10.0 mi East 3.5 mph 18.4 mph N/A   Clear
1:55 PM 55.4 °F - 10.4 °F 17% 30.11 in 10.0 mi South 4.6 mph 9.2 mph N/A   Clear
2:15 PM 57.2 °F - 10.4 °F 16% 30.11 in 10.0 mi South 5.8 mph 16.1 mph N/A   Clear
2:35 PM 59.0 °F - 10.4 °F 15% 30.11 in 10.0 mi SSE 9.2 mph - N/A   Clear
2:55 PM 59.0 °F - 12.2 °F 16% 30.10 in 10.0 mi South 9.2 mph 19.6 mph N/A   Clear
3:15 PM 59.0 °F - 12.2 °F 16% 30.09 in 10.0 mi SW 6.9 mph - N/A   Clear
3:35 PM 60.8 °F - 12.2 °F 15% 30.08 in 10.0 mi ENE 8.1 mph 17.3 mph N/A   Clear
3:55 PM 64.4 °F - 8.6 °F 11% 30.08 in 10.0 mi SSW 16.1 mph 25.3 mph N/A   Clear
4:15 PM 62.6 °F - 10.4 °F 13% 30.08 in 10.0 mi SW 12.7 mph 20.7 mph N/A   Clear
4:35 PM 62.6 °F - 8.6 °F 12% 30.08 in 10.0 mi WSW 20.7 mph 25.3 mph N/A   Clear
4:55 PM 62.6 °F - 10.4 °F 13% 30.08 in 10.0 mi WSW 16.1 mph 20.7 mph N/A   Clear
5:15 PM 62.6 °F - 10.4 °F 13% 30.08 in 10.0 mi SW 18.4 mph 24.2 mph N/A   Clear
5:35 PM 60.8 °F - 10.4 °F 14% 30.08 in 10.0 mi SW 11.5 mph 16.1 mph N/A   Clear
5:55 PM 62.6 °F - 8.6 °F 12% 30.08 in 10.0 mi SW 8.1 mph 21.9 mph N/A   Clear
6:15 PM 62.6 °F - 8.6 °F 12% 30.08 in 10.0 mi SW 11.5 mph 20.7 mph N/A   Clear
6:35 PM 62.6 °F - 8.6 °F 12% 30.08 in 10.0 mi SW 15.0 mph 20.7 mph N/A   Clear
6:55 PM 60.8 °F - 10.4 °F 14% 30.08 in 10.0 mi SW 12.7 mph 18.4 mph N/A   Clear
7:15 PM 59.0 °F - 10.4 °F 15% 30.08 in 10.0 mi SW 10.4 mph - N/A   Scattered Clouds
7:35 PM 59.0 °F - 8.6 °F 14% 30.09 in 10.0 mi SW 10.4 mph - N/A   Scattered Clouds
7:55 PM 59.0 °F - 8.6 °F 14% 30.09 in 10.0 mi WSW 9.2 mph - N/A   Mostly Cloudy
8:15 PM 55.4 °F - 10.4 °F 17% 30.09 in 10.0 mi West 12.7 mph - N/A   Scattered Clouds
8:35 PM 55.4 °F - 8.6 °F 15% 30.09 in 10.0 mi West 8.1 mph - N/A   Scattered Clouds
8:55 PM 51.8 °F - 8.6 °F 18% 30.09 in 10.0 mi West 3.5 mph - N/A   Mostly Cloudy
9:15 PM 50.0 °F - 12.2 °F 22% 30.09 in 10.0 mi NNW 5.8 mph - N/A   Scattered Clouds
9:35 PM 44.6 °F 43.1 °F 12.2 °F 27% 30.11 in 10.0 mi West 3.5 mph - N/A   Clear
9:55 PM 42.8 °F - 14.0 °F 31% 30.11 in 10.0 mi Calm Calm - N/A   Clear
10:15 PM 44.6 °F - 15.8 °F 31% 30.11 in 10.0 mi Calm Calm - N/A   Scattered Clouds
10:35 PM 46.4 °F - 14.0 °F 27% 30.11 in 10.0 mi Calm Calm - N/A   Scattered Clouds
10:55 PM 37.4 °F 34.9 °F 17.6 °F 45% 30.11 in 10.0 mi WNW 3.5 mph - N/A   Scattered Clouds
11:15 PM 41.0 °F 38.0 °F 17.6 °F 39% 30.11 in 10.0 mi WNW 4.6 mph - N/A   Mostly Cloudy
11:35 PM 37.4 °F - 19.4 °F 48% 30.09 in 10.0 mi Calm Calm - N/A   Mostly Cloudy
11:55 PM 37.4 °F 32.8 °F 19.4 °F 48% 30.09 in 10.0 mi NW 5.8 mph - N/A   Mostly Cloudy